Погода в Дублянах

Украина / Львовская область     49°29′57″N   23°24′21″E
темп.,
°C
ветер,
м/с
пор.,
м/с
влажн.,
%
обл.,
%
осадки,
мм/ч
давл.,
гПа
погр.,
м
31 июля, сб
сб3100:00+20ю22664 0.0 101015
03:00+18юз22707 0.0 101011
06:00+19ююз116498 0.0 100911
09:00+23ююв226244 0.0 1010154
12:00+28ю144643 0.0 10091233
15:00+25вюв6863100 0.0 1008322
18:00+23юз6974100 0.8 1008465
21:00+18сз61098100 4.1 1010365
1 августа, вс
вс100:00+16з359853 5.1 1011167
03:00+15зюз22930 5.1 101119
06:00+15ююв11890 0.0 101111
09:00+20юв23781 0.0 1011205
12:00+25юв45614 0.0 1010708
15:00+27вюв675671 0.0 1008851
18:00+27юв71265100 0.0 1005578
21:00+17ююв71681100 1.3 1004265
2 августа, пн
пн200:00+18зсз511945 0.3 1006399
03:00+17сз22955 0.4 100732
06:00+15зсз499727 0.0 1008235
09:00+18зсз5791100 0.0 1009573
12:00+15сз5896100 0.9 1011484
15:00+15зсз479394 1.6 1012432
18:00+16зюз2591100 0.2 1013264
21:00+14з229371 0.2 101333
3 августа, вт
вт300:00+13зюз33935 0.0 101439
03:00+13зюз22920 0.0 101529
06:00+12зюз22924 0.0 101614
09:00+17зюз22780 0.0 1016249
12:00+21зсз24600 0.0 10161187
15:00+24сз254966 0.1 10151757
18:00+23с34616 0.0 1015811
21:00+19вюв227062 0.0 101513
4 августа, ср
ср400:00+17юв3477100 0.1 101568
03:00+15юв3586100 0.1 101578
06:00+14ююв22844 0.0 101531
09:00+19юв2266100 0.0 1015149
12:00+27юз254220 0.0 10141677
15:00+28з2538100 0.0 10132475
18:00+27в225695 0.0 1012420
21:00+20вюв41177100 0.0 1011228